Dr. Bill's Marine Weather

Coastal Marine Forecast

       Alabama   Florida   Louisiana   Mississippi

Printer Friendly AL  FL  LA  MS

Data Buoys:   Western Gulf of Mexico    Eastern Gulf of Mexico
**********************************************************************
  Alabama
1000 AM CDT SUN JUN 25 2017

ALZ051>064-251600-
SOUTHWEST ALABAMA
  
CITY           SKY/WX    TMP DP  RH WIND       PRES   REMARKS
MOBILE         PTSUNNY   83  72  69 N10       30.14S                  
BROOKLEY FIELD MOSUNNY   85  75  72 NE9       30.14S HX  93           
EVERGREEN      SUNNY     82  69  64 NE8       30.16R                  
**********************************************************************
  Florida
1100 AM EDT SUN JUN 25 2017

FLZ001>010-012>015-112-114-115-251600-
PANHANDLE FLORIDA
  
CITY           SKY/WX    TMP DP  RH WIND       PRES   REMARKS
PENSACOLA      SUNNY     87  75  67 VRB5      30.11S HX  96           
PENSACOLA NAS  MOSUNNY   87  75  67 N6        30.11R HX  96           
MILTON NAS     MOSUNNY   83  76  79 VRB3      30.12                   
CRESTVIEW      PTSUNNY   84  75  74 N5        30.13R                  
DUKE FIELD     FAIR      84  75  76 N3        30.11R                  
VALPARAISO     PTSUNNY   86  76  72 N7        30.11R HX  96           
MARY ESTHER    CLOUDY    86  70  58 NW7       30.10                   
PANAMA CITY    FAIR      85  75  72 CALM      30.10R                  
TYNDALL AFB    PTSUNNY   84  78  81 SW9       30.11R HX  95           
APALACHICOLA   SUNNY     86  76  71 SW8       30.11R HX  96           

STATION/POSITION SKY/WX   TEMP    WIND        PRES    WAVE   SWELL
                          AIR SEA DIR/SP/G            HT/PER HT/PER
                          (F)     (DEG/KT/KT) (MB)    (FT/S) (FT/S)
30.1N   87.6W              80 83   30/  6/  8 1019.0    2/ 5   2/ 5
29.2N   88.2W              82 83  340/  6/  8 1019.6R   2/ 8   2/ 8
28.8N   86.0W              82 82  230/  2/  2 1019.2    2/ 7   2/ 7
PANAMA CITY BEAC           82 83  260/  4/  4 1019.9R
TOWER C                    81     260/  5/  6 1020.7R
28.5N   84.5W              82 84   CALM  /  2 1019.3    2/ 5   2/ 5

**********************************************************************
  Louisiana
1000 AM CDT SUN JUN 25 2017

LAZ040-048-061>063-065-066-069-251600-
SOUTHEAST LOUISIANA
  
CITY           SKY/WX    TMP DP  RH WIND       PRES   REMARKS
N.O. INTL ARPT CLOUDY    82  75  79 NE7       30.12S                  
N.O. LAKEFRONT CLOUDY    83  74  74 NE8       30.13S                  
N.O. DOWNTOWN*   N/A     83  75  77 VRB5        N/A                   
RESERVE*       CLOUDY    83  77  82 NE7       30.14S                  
SLIDELL        SUNNY     83  73  72 N10       30.13R                  
BATON ROUGE    MOSUNNY   81  72  74 NE9       30.16R                  
BOOTHVILLE     PTSUNNY   83  77  82 N6        30.12R                  
BELLE CHASSE   PTSUNNY   81  78  91 NE6       30.12R                  
BOGALUSA*      FAIR      82  69  66 NE12      30.17S                  
GALLIANO*      CLOUDY    83  75  77 CALM      30.13R HAZE             
NEW ROADS*       N/A     78  73  83 NE6       30.17R                  
GONZALES*      PTSUNNY   80  74  82 NE5       30.14R                  
HAMMOND*       SUNNY     81  70  69 NE5       30.15S                  
HOUMA*         SUNNY     81  75  83 N9        30.13R                  
PORT FOURCHON* PTSUNNY  N/A N/A N/A N6G12     30.12R                  

**********************************************************************
  Mississippi
1000 AM CDT SUN JUN 25 2017

MSZ080>082-251600-
COASTAL MISSISSIPPI
  
CITY           SKY/WX    TMP DP  RH WIND       PRES   REMARKS
BAY ST LOUIS   SUNNY     81  73  78 N7        30.14R                  
BILOXI         SUNNY     83  75  75 NE9       30.12R HX  91           
PASCAGOULA     MOSUNNY   82  72  71 N8        30.12S                  
GULFPORT       CLOUDY    83  74  74 N9        30.12R                  
About Us | Coastal Marine Forecast | Offshore Marine Forecast
Gulf Coast Tides | Hourly Weather Observations | Weather Radar
Sea Surface Temperatures | Solar/Lunar Data | Hurricane Advisories | Home
     
USA Logo Dr. Bill's Marine Weather
Last date changed: December 9, 2014 4:08 PM
www.gulfmarineweather.com/hourlyweatherobservations.shtml
Contact Us